Location: Unspecified
(0.0000°N, 0.0000°E)
Time: 18:59:11
(UTC+00:00)

Courier 1B - Pass Details

Date: 28 November 2019
Orbit: 963 x 1209 km, 28.3° (Epoch: 08 December)

Event Time Altitude Azimuth Distance (km) Brightness Sun altitude
Rises 23:51:19 0° 260° (W) 4,087 - -68.8°
Reaches altitude 10° 23:54:28 10° 269° (W) 3,135 - -68.7°
Maximum altitude 00:01:25 34° 332° (NNW) 1,859 - -68.5°
Drops below altitude 10° 00:08:19 10° 34° (NE) 3,102 - -68.2°
Sets 00:11:25 0° 44° (NE) 4,040 - -68.0°
